FW3899 Weather Reports


Display with metric or nautical units.
time (UTC)temp
F
wind
direction
speed
MPH
gust
MPH
rain 1hr
in
rain 24hr
in
rain mn
in
humidity
%
barometer
mb
20260831044602 60 223 4.0 6.0 0.00 0.19 0.19 92 1015.5
20260831043057 61 263 3.0 9.0 0.00 0.19 0.19 91 1015.6
20260831041556 62 237 6.0 10.0 0.00 0.19 0.19 91 1015.5
20260831040056 62 240 7.0 12.0 0.00 0.19 0.19 90 1015.3
20260831034555 62 241 7.0 12.0 0.00 0.19 0.19 90 1015.3
20260831033054 61 228 6.0 11.0 0.00 0.19 0.19 92 1015.3
20260831031555 61 228 7.0 12.0 0.00 0.19 0.19 93 1015.4
20260831030057 61 226 4.0 7.0 0.00 0.19 0.19 92 1015.5
20260831024549 61 201 6.0 10.0 0.00 0.19 0.19 92 1015.4
20260831023047 61 220 5.0 12.0 0.00 0.19 0.19 92 1015.3
20260831021546 62 230 8.0 12.0 0.00 0.19 0.19 92 1015.3
20260831020045 62 229 7.0 12.0 0.00 0.19 0.19 92 1015.3
20260831014549 62 226 8.0 13.0 0.00 0.19 0.19 91 1015.1
20260831013043 62 256 7.0 11.0 0.00 0.19 0.19 91 1015.0
20260831011542 62 248 5.0 12.0 0.00 0.19 0.19 91 1015.0
20260831010042 62 238 4.0 8.0 0.01 0.19 0.19 92 1014.8
20260831004545 62 225 5.0 8.0 0.07 0.19 0.19 92 1014.7
20260831003040 62 231 5.0 12.0 0.19 0.19 0.19 92 1014.9
20260831001539 62 242 4.0 10.0 0.19 0.19 0.19 92 1014.8
20260831000053 62 259 10.0 19.0 0.17 0.17 0.17 91 1014.4
20260830234532 64 247 19.0 27.0 0.11 0.11 0.11 86 1015.2
20260830233046 66 274 14.0 19.0 0.00 0.00 0.00 82 1013.6
20260830231526 65 264 8.0 12.0 0.00 0.00 0.00 83 1012.8
20260830230025 68 291 5.0 8.0 0.00 0.00 0.00 78 1012.6
20260830224521 68 196 3.0 5.0 0.00 0.00 0.00 77 1012.4
20260830223019 67 186 2.0 4.0 0.00 0.00 0.00 77 1012.3
20260830221516 66 176 0.0 1.0 0.00 0.00 0.00 78 1012.5
20260830220022 66 191 0.0 0.0 0.00 0.00 0.00 79 1012.6
20260830214517 66 191 0.0 0.0 0.00 0.00 0.00 79 1012.7
20260830213018 66 191 0.0 2.0 0.00 0.00 0.00 80 1012.8
20260830211512 66 191 1.0 3.0 0.00 0.00 0.00 81 1013.0
20260830210020 66 191 0.0 0.0 0.00 0.00 0.00 81 1013.1
20260830204511 66 191 0.0 2.0 0.00 0.00 0.00 81 1013.0
20260830203010 66 191 0.0 2.0 0.00 0.00 0.00 81 1013.0
20260830201510 66 191 1.0 3.0 0.00 0.00 0.00 81 1013.0
20260830200009 67 191 0.0 2.0 0.00 0.00 0.00 81 1013.0
20260830194511 67 207 0.0 0.0 0.00 0.00 0.00 82 1013.1
20260830193008 67 207 0.0 0.0 0.00 0.00 0.00 81 1013.4
20260830191528 67 207 0.0 0.0 0.00 0.00 0.00 80 1013.2
20260830190007 68 209 2.0 3.0 0.00 0.00 0.00 79 1013.2
20260830184506 69 213 0.0 0.0 0.00 0.00 0.00 77 1013.0
20260830183006 70 213 0.0 3.0 0.00 0.00 0.00 75 1013.0
20260830181506 72 212 1.0 4.0 0.00 0.00 0.00 72 1012.9
20260830180005 73 288 1.0 3.0 0.00 0.00 0.00 69 1012.9
20260830174504 74 288 1.0 4.0 0.00 0.00 0.00 67 1012.9
20260830173009 75 240 2.0 4.0 0.00 0.00 0.00 63 1012.8
20260830171503 77 253 1.0 4.0 0.00 0.00 0.00 60 1012.7
20260830170000 79 254 2.0 4.0 0.00 0.00 0.00 58 1012.8
20260830164600 80 217 4.0 9.0 0.00 0.00 0.00 53 1012.8
20260830163058 80 297 4.0 7.0 0.00 0.00 0.00 54 1012.8
20260830161605 80 270 7.0 11.0 0.00 0.00 0.00 53 1013.0
20260830160057 79 264 1.0 7.0 0.00 0.00 0.00 54 1013.0
20260830154602 78 206 3.0 7.0 0.00 0.00 0.00 53 1013.0
20260830153054 79 238 6.0 11.0 0.00 0.00 0.00 54 1013.1
20260830151553 80 247 4.0 12.0 0.00 0.00 0.00 52 1013.2
20260830150052 80 246 7.0 12.0 0.00 0.00 0.00 52 1013.2
20260830144602 80 224 4.0 13.0 0.00 0.00 0.00 53 1013.3
20260830143049 81 282 10.0 15.0 0.00 0.00 0.00 53 1013.3
20260830141549 81 279 9.0 15.0 0.00 0.00 0.00 53 1013.3
20260830140051 80 284 11.0 16.0 0.00 0.00 0.00 54 1013.6
20260830134545 80 278 10.0 15.0 0.00 0.00 0.00 54 1013.7
20260830133055 80 257 4.0 18.0 0.00 0.00 0.00 57 1014.0
20260830131552 79 238 10.0 18.0 0.00 0.00 0.00 56 1014.1
20260830130140 79 253 10.0 19.0 0.00 0.00 0.00 57 1014.1
20260830124537 78 211 9.0 13.0 0.00 0.00 0.00 61 1014.2
20260830123035 78 249 8.0 11.0 0.00 0.00 0.00 60 1014.4
20260830121533 77 256 8.0 16.0 0.00 0.00 0.00 62 1014.4
20260830120044 77 200 9.0 18.0 0.00 0.00 0.00 61 1014.5
20260830114533 77 299 12.0 16.0 0.00 0.00 0.00 60 1014.6
20260830113029 77 287 12.0 17.0 0.00 0.00 0.00 63 1014.6
20260830111531 76 243 11.0 16.0 0.00 0.00 0.00 61 1014.8
20260830110024 77 293 11.0 16.0 0.00 0.00 0.00 62 1014.9
20260830104525 76 304 9.0 16.0 0.00 0.00 0.00 63 1015.0
20260830103017 75 282 8.0 15.0 0.00 0.00 0.00 64 1015.1
20260830101514 74 268 10.0 16.0 0.00 0.00 0.00 64 1015.4
20260830100013 74 278 9.0 15.0 0.00 0.00 0.00 64 1015.4
20260830094612 74 291 8.0 15.0 0.00 0.00 0.00 65 1015.6
20260830093015 73 245 10.0 15.0 0.00 0.00 0.00 65 1015.7
20260830091515 73 263 7.0 13.0 0.00 0.00 0.00 65 1015.7
20260830090002 72 216 6.0 11.0 0.00 0.00 0.00 64 1015.8
20260830084559 71 212 4.0 13.0 0.00 0.00 0.00 65 1015.8
20260830083107 72 199 4.0 9.0 0.00 0.00 0.00 66 1015.8
20260830081553 71 295 7.0 9.0 0.00 0.00 0.00 65 1015.8
20260830080050 71 242 4.0 8.0 0.00 0.00 0.00 65 1015.7
20260830074547 71 327 2.0 5.0 0.00 0.00 0.00 66 1015.8
20260830073043 70 270 3.0 8.0 0.00 0.00 0.00 66 1015.8
20260830071540 69 235 3.0 10.0 0.00 0.00 0.00 67 1015.8
20260830070103 69 228 6.0 9.0 0.00 0.00 0.00 67 1015.6
20260830064533 69 207 4.0 9.0 0.00 0.00 0.00 69 1015.6
20260830063033 68 209 3.0 6.0 0.00 0.00 0.00 70 1015.7
20260830061526 67 186 3.0 5.0 0.00 0.00 0.00 70 1015.8
20260830060040 66 197 4.0 6.0 0.00 0.00 0.00 71 1015.8
20260830054519 64 195 4.0 6.0 0.00 0.00 0.00 74 1015.8
20260830053014 63 203 4.0 6.0 0.00 0.00 0.00 77 1015.7
20260830051510 61 195 3.0 5.0 0.00 0.00 0.00 79 1015.8
20260830050008 61 201 0.0 1.0 0.00 0.00 0.00 79 1015.7